Miscellaneous Local Product
Issued by NWS Hastings, NE

Home | Current Version | Previous Version | Graphics & Text | Print | Product List | Glossary On
Versions: 1 2 3 4 5 6 7 8 9 10 11 12 13 14 15 16 17 18 19 20 21 22 23 24 25 26 27 28 29 30 31 32 33 34 35 36 37 38 39 40 41 42 43 44 45 46 47 48 49 50
000
AXUS43 KGID 191302
MISGRI

GID CWA HOURLY WEATHER ROUNDUP
NATIONAL WEATHER SERVICE HASTINGS NE
700 AM CST FRI DEC 19 2014

NOTE: "FAIR" INDICATES FEW OR NO CLOUDS BELOW 12,000 FEET WITH NO
SIGNIFICANT WEATHER AND/OR OBSTRUCTIONS TO VISIBILITY.

...SOUTH CENTRAL NEBRASKA...

CITY           SKY/WX    TMP DP  RH WIND       PRES   REMARKS
GRAND ISLAND   CLOUDY    31  27  85 SW7       30.14F WCI  24
HASTINGS       CLOUDY    31  27  85 SW5       30.13S WCI  26
KEARNEY        CLOUDY    28  25  86 SW9       30.13S WCI  20
ORD            CLOUDY    26  25  96 S7        30.11R FOG     WCI  18
YORK           CLOUDY    30  28  93 S7        30.16F WCI  23
AURORA         CLOUDY    31  29  91 SW7       30.15S WCI  25
LEXINGTON      FOG       26  26  96 SW7       30.11S VSB 1/2 WCI  19
HOLDREGE       FOG       27  26  96 SW5       30.12S VSB 1/2 WCI  21
HEBRON         CLOUDY    30  27  90 CALM      30.18F FOG

...NEBRASKA PANHANDLE...

CITY           SKY/WX    TMP DP  RH WIND       PRES   REMARKS
CHADRON        CLEAR     11   7  84 SW8       30.04R WCI  -1
ALLIANCE       PTCLDY     2  -1  88 W9        30.04S WCI -13
SCOTTSBLUFF    PTCLDY     4   3  96 NW6       30.06S WCI  -7
SIDNEY         CLEAR     15  10  80 W7        30.07R WCI   5

...WESTERN AND NORTH CENTRAL NEBRASKA...

CITY           SKY/WX    TMP DP  RH WIND       PRES   REMARKS
VALENTINE      PTCLDY    13   9  84 SW7       30.04R WCI   3
AINSWORTH      PTCLDY    15  13  92 SW5       30.04S WCI   7
ONEILL         FOG       27  27 100 S9        30.09S VSB 1/2 WCI  17
BROKEN BOW     CLOUDY    24  23  96 SW7       30.09R FOG     WCI  16
IMPERIAL       CLEAR     18  13  80 W5        30.09R WCI  11
NORTH PLATTE   PTCLDY    13   7  77 CALM      30.09R
MCCOOK         CLEAR     14  12  92 SW6       30.12S WCI   5

...EASTERN NEBRASKA...

CITY           SKY/WX    TMP DP  RH WIND       PRES   REMARKS
NORFOLK        CLOUDY    30  26  85 SW9       30.15S WCI  22
SO SIOUX CITY  CLOUDY    31  28  89 S6        30.20R FOG     WCI  25
TEKAMAH        CLOUDY    31  29  92 SE5       30.21S FOG     WCI  26
COLUMBUS       CLOUDY    30  25  80 SW5       30.18S WCI  25
ALBION         CLOUDY    29  26  88 S8        30.13S WCI  21
OMAHA EPPLEY   CLOUDY    31  28  89 S6        30.23S FOG     WCI  25
OFFUTT AFB     CLOUDY    30  28  93 SE3       30.22S
MILLARD        CLOUDY    32  29  90 SE5       30.21F FOG     WCI  27
LINCOLN        CLOUDY    31  28  89 SE6       30.21S FOG     WCI  25
NEBRASKA CITY  CLOUDY    30  30 100 S5        30.22R FOG     WCI  25
BEATRICE       CLOUDY    30  28  92 S5        30.20S FOG     WCI  25
FALLS CITY     CLOUDY    29  26  89 SW6       30.24S WCI  23

...NORTHERN KANSAS...

CITY           SKY/WX    TMP DP  RH WIND       PRES   REMARKS
GOODLAND       CLEAR     25  21  85 W8        30.09R WCI  16
HILL CITY      CLOUDY    32  30  92 W6        30.14S FOG     WCI  26
NORTON         FOG       30  28  93 SW7       30.11S VSB 1/2 WCI  23
PHILLIPSBURG   CLOUDY    34  34 100 CALM      30.15S
SMITH CENTER   CLOUDY    28  28 100 SE3       30.16R FOG
BELOIT         CLOUDY    28  28 100 CALM      30.18S
HAYS           CLOUDY    34  25  69 CALM      30.15S
RUSSELL        CLOUDY    31  30  96 S6        30.15R FOG     WCI  25
CONCORDIA      CLOUDY    29  28  96 E5        30.18S FOG     WCI  24
SALINA         FOG       30  28  92 E6        30.21S VSB 3/4 WCI  24
TOPEKA         CLOUDY    30  28  92 W3        30.25S



USA.gov is the U.S. government's official web portal to all federal, state and local government web resources and services.